| time (UTC) | temp C | wind direction | speed KPH | gust KPH | rain 1hr cm | rain 24hr cm | rain mn cm | humidity % | barometer mb |
| 20260508231025 | 17 | 248 | 3.2 | 12.9 | 0.00 | 0.00 | 0.00 | 100 | |
| 20260508230525 | 17 | 168 | 8.0 | 12.9 | 0.00 | 0.00 | 0.00 | 100 | |
| 20260508230025 | 17 | 247 | 6.4 | 14.5 | 0.00 | 0.00 | 0.00 | 100 | |
| 20260508225525 | 17 | 220 | 6.4 | 16.1 | 0.00 | 0.00 | 0.00 | 100 | |
| 20260508225025 | 17 | 195 | 4.8 | 19.3 | 0.00 | 0.00 | 0.00 | 100 | |
| 20260508224525 | 17 | 270 | 8.0 | 16.1 | 0.00 | 0.00 | 0.00 | 100 | |
| 20260508224025 | 17 | 229 | 11.3 | 14.5 | 0.00 | 0.00 | 0.00 | 100 | |
| 20260508223525 | 17 | 208 | 1.6 | 12.9 | 0.00 | 0.00 | 0.00 | 100 | |
| 20260508223025 | 17 | 104 | 1.6 | 19.3 | 0.00 | 0.00 | 0.00 | 100 | |
| 20260508222525 | 17 | 178 | 9.7 | 14.5 | 0.00 | 0.00 | 0.00 | 100 | |
| 20260508222025 | 17 | 213 | 11.3 | 20.9 | 0.00 | 0.00 | 0.00 | 100 | |
| 20260508221525 | 17 | 213 | 3.2 | 24.1 | 0.00 | 0.00 | 0.00 | 100 | |
| 20260508221025 | 18 | 243 | 16.1 | 24.1 | 0.00 | 0.00 | 0.00 | 100 | |
| 20260508220525 | 18 | 212 | 3.2 | 17.7 | 0.00 | 0.00 | 0.00 | 100 | |
| 20260508220025 | 18 | 178 | 4.8 | 17.7 | 0.00 | 0.00 | 0.00 | 100 | |
| 20260508215525 | 17 | 202 | 6.4 | 14.5 | 0.00 | 0.00 | 0.00 | 100 | |
| 20260508215025 | 17 | 143 | 0.0 | 11.3 | 0.00 | 0.00 | 0.00 | 100 | |
| 20260508214525 | 18 | 194 | 8.0 | 11.3 | 0.00 | 0.00 | 0.00 | 100 | |
| 20260508214026 | 19 | 240 | 1.6 | 12.9 | 0.00 | 0.00 | 0.00 | 100 | |
| 20260508213525 | 18 | 230 | 6.4 | 16.1 | 0.00 | 0.00 | 0.00 | 100 | |
| 20260508213026 | 18 | 217 | 4.8 | 17.7 | 0.00 | 0.00 | 0.00 | 100 | |
| 20260508212526 | 18 | 271 | 9.7 | 19.3 | 0.00 | 0.00 | 0.00 | 100 | |
| 20260508212026 | 19 | 234 | 11.3 | 12.9 | 0.00 | 0.00 | 0.00 | 100 | |
| 20260508211526 | 18 | 184 | 6.4 | 14.5 | 0.00 | 0.00 | 0.00 | 100 | |
| 20260508211026 | 18 | 236 | 8.0 | 14.5 | 0.00 | 0.00 | 0.00 | 100 | |
| 20260508210526 | 19 | 226 | 14.5 | 16.1 | 0.00 | 0.00 | 0.00 | 100 | |
| 20260508210026 | 19 | 264 | 4.8 | 17.7 | 0.00 | 0.00 | 0.00 | 100 | |
| 20260508205526 | 19 | 262 | 6.4 | 19.3 | 0.00 | 0.00 | 0.00 | 100 | |
| 20260508205026 | 19 | 275 | 4.8 | 14.5 | 0.00 | 0.00 | 0.00 | 100 | |
| 20260508204526 | 19 | 203 | 0.0 | 11.3 | 0.00 | 0.00 | 0.00 | 100 | |
| 20260508204026 | 19 | 187 | 4.8 | 14.5 | 0.00 | 0.00 | 0.00 | 100 | |
| 20260508203526 | 20 | 229 | 8.0 | 16.1 | 0.00 | 0.00 | 0.00 | 100 | |
| 20260508203026 | 20 | 247 | 4.8 | 14.5 | 0.00 | 0.00 | 0.00 | 100 | |
| 20260508202526 | 19 | 180 | 6.4 | 12.9 | 0.00 | 0.00 | 0.00 | 100 | |
| 20260508202026 | 20 | 277 | 6.4 | 14.5 | 0.00 | 0.00 | 0.00 | 100 | |
| 20260508201526 | 19 | 191 | 8.0 | 12.9 | 0.00 | 0.00 | 0.00 | 100 | |
| 20260508201026 | 19 | 265 | 4.8 | 16.1 | 0.00 | 0.00 | 0.00 | 100 | |
| 20260508200526 | 20 | 236 | 4.8 | 22.5 | 0.00 | 0.00 | 0.00 | 100 | |
| 20260508200026 | 20 | 275 | 11.3 | 16.1 | 0.00 | 0.00 | 0.00 | 100 | |
| 20260508195526 | 19 | 158 | 0.0 | 12.9 | 0.00 | 0.00 | 0.00 | 100 | |
| 20260508195026 | 18 | 230 | 0.0 | 8.0 | 0.00 | 0.00 | 0.00 | 100 | |
| 20260508194526 | 20 | 216 | 0.0 | 16.1 | 0.00 | 0.00 | 0.00 | 100 | |
| 20260508194026 | 19 | 300 | 0.0 | 11.3 | 0.00 | 0.00 | 0.00 | 100 | |
| 20260508193526 | 20 | 262 | 9.7 | 11.3 | 0.00 | 0.00 | 0.00 | 100 | |
| 20260508193026 | 20 | 167 | 6.4 | 11.3 | 0.00 | 0.00 | 0.00 | 100 | |
| 20260508192526 | 20 | 203 | 4.8 | 25.7 | 0.00 | 0.00 | 0.00 | 100 | |
| 20260508192026 | 21 | 279 | 16.1 | 16.1 | 0.00 | 0.00 | 0.00 | 100 | |
| 20260508191526 | 19 | 234 | 8.0 | 8.0 | 0.00 | 0.00 | 0.00 | 100 | |
| 20260508191026 | 18 | 239 | 3.2 | 11.3 | 0.00 | 0.00 | 0.00 | 100 | |
| 20260508190526 | 18 | 216 | 8.0 | 14.5 | 0.00 | 0.00 | 0.00 | 100 | |
| 20260508190026 | 18 | 119 | 6.4 | 8.0 | 0.00 | 0.00 | 0.00 | 100 | |
| 20260508185526 | 18 | 247 | 4.8 | 14.5 | 0.00 | 0.00 | 0.00 | 100 | |
| 20260508185026 | 19 | 250 | 8.0 | 14.5 | 0.00 | 0.00 | 0.00 | 100 | |
| 20260508184526 | 19 | 165 | 1.6 | 12.9 | 0.00 | 0.00 | 0.00 | 100 | |
| 20260508184026 | 19 | 222 | 9.7 | 14.5 | 0.00 | 0.00 | 0.00 | 100 | |
| 20260508183526 | 20 | 135 | 0.0 | 11.3 | 0.00 | 0.00 | 0.00 | 100 | |
| 20260508183026 | 19 | 71 | 0.0 | 12.9 | 0.00 | 0.00 | 0.00 | 100 | |
| 20260508182526 | 19 | 222 | 0.0 | 14.5 | 0.00 | 0.00 | 0.00 | 100 | |
| 20260508182026 | 20 | 219 | 1.6 | 11.3 | 0.00 | 0.00 | 0.00 | 100 | |
| 20260508181526 | 20 | 305 | 0.0 | 11.3 | 0.00 | 0.00 | 0.00 | 100 | |
| 20260508181026 | 19 | 85 | 0.0 | 9.7 | 0.00 | 0.00 | 0.00 | 100 | |
| 20260508180526 | 19 | 150 | 6.4 | 12.9 | 0.00 | 0.00 | 0.00 | 100 | |
| 20260508180026 | 18 | 156 | 3.2 | 8.0 | 0.00 | 0.00 | 0.00 | 100 | |
| 20260508175526 | 17 | 91 | 1.6 | 11.3 | 0.00 | 0.00 | 0.00 | 100 | |
| 20260508175026 | 18 | 122 | 0.0 | 8.0 | 0.00 | 0.00 | 0.00 | 100 | |
| 20260508174526 | 19 | 171 | 3.2 | 6.4 | 0.00 | 0.00 | 0.00 | 100 | |
| 20260508174026 | 19 | 225 | 0.0 | 9.7 | 0.00 | 0.00 | 0.00 | 100 | |
| 20260508173526 | 18 | 241 | 0.0 | 0.0 | 0.00 | 0.00 | 0.00 | 100 | |
| 20260508173026 | 17 | 241 | 0.0 | 6.4 | 0.00 | 0.00 | 0.00 | 100 | |
| 20260508172526 | 18 | 312 | 0.0 | 6.4 | 0.00 | 0.00 | 0.00 | 100 | |
| 20260508172026 | 17 | 251 | 1.6 | 6.4 | 0.00 | 0.00 | 0.00 | 100 | |
| 20260508171526 | 17 | 222 | 4.8 | 8.0 | 0.00 | 0.00 | 0.00 | 100 | |
| 20260508171026 | 18 | 331 | 4.8 | 9.7 | 0.00 | 0.00 | 0.00 | 100 | |
| 20260508170526 | 17 | 196 | 0.0 | 4.8 | 0.00 | 0.00 | 0.00 | 100 | |
| 20260508170026 | 16 | 43 | 0.0 | 6.4 | 0.00 | 0.00 | 0.00 | 100 | |
| 20260508165526 | 15 | 37 | 0.0 | 12.9 | 0.00 | 0.00 | 0.00 | 100 | |
| 20260508165026 | 14 | 66 | 12.9 | 12.9 | 0.00 | 0.00 | 0.00 | 100 | |
| 20260508164526 | 14 | 61 | 8.0 | 9.7 | 0.00 | 0.00 | 0.00 | 100 | |
| 20260508164026 | 14 | 95 | 4.8 | 11.3 | 0.00 | 0.00 | 0.00 | 100 | |
| 20260508163526 | 14 | 90 | 4.8 | 19.3 | 0.00 | 0.00 | 0.00 | 100 | |
| 20260508163026 | 15 | 115 | 1.6 | 9.7 | 0.00 | 0.00 | 0.00 | 100 | |
| 20260508162526 | 14 | 11 | 3.2 | 12.9 | 0.00 | 0.00 | 0.00 | 100 | |
| 20260508162026 | 15 | 28 | 1.6 | 6.4 | 0.00 | 0.00 | 0.00 | 100 | |
| 20260508161526 | 15 | 84 | 3.2 | 12.9 | 0.00 | 0.00 | 0.00 | 100 | |
| 20260508161026 | 15 | 33 | 9.7 | 9.7 | 0.00 | 0.00 | 0.00 | 100 | |
| 20260508160526 | 14 | 19 | 0.0 | 6.4 | 0.00 | 0.00 | 0.00 | 100 | |
| 20260508160026 | 14 | 33 | 6.4 | 8.0 | 0.00 | 0.00 | 0.00 | 100 | |
| 20260508155526 | 16 | 319 | 1.6 | 4.8 | 0.00 | 0.00 | 0.00 | 100 | |
| 20260508155026 | 14 | 87 | 4.8 | 14.5 | 0.00 | 0.00 | 0.00 | 100 | |
| 20260508154526 | 15 | 63 | 11.3 | 12.9 | 0.00 | 0.00 | 0.00 | 100 | |
| 20260508154026 | 14 | 81 | 9.7 | 12.9 | 0.00 | 0.00 | 0.00 | 100 | |
| 20260508153526 | 16 | 153 | 0.0 | 3.2 | 0.00 | 0.00 | 0.00 | 100 | |
| 20260508153026 | 15 | 184 | 3.2 | 4.8 | 0.00 | 0.00 | 0.00 | 100 | |
| 20260508152526 | 15 | 213 | 0.0 | 9.7 | 0.00 | 0.00 | 0.00 | 100 | |
| 20260508152026 | 16 | 47 | 3.2 | 6.4 | 0.00 | 0.00 | 0.00 | 100 | |
| 20260508151526 | 15 | 7 | 0.0 | 3.2 | 0.00 | 0.00 | 0.00 | 100 | |
| 20260508151026 | 14 | 4 | 0.0 | 9.7 | 0.00 | 0.00 | 0.00 | 100 | |
| 20260508150526 | 15 | 37 | 0.0 | 9.7 | 0.00 | 0.00 | 0.00 | 100 | |
| 20260508150026 | 14 | 67 | 0.0 | 12.9 | 0.00 | 0.00 | 0.00 | 100 | |
| 20260508145526 | 14 | 123 | 8.0 | 9.7 | 0.00 | 0.00 | 0.00 | 100 | |
| 20260508145026 | 15 | 53 | 4.8 | 8.0 | 0.00 | 0.00 | 0.00 | 100 | |
| 20260508144526 | 13 | 9 | 0.0 | 6.4 | 0.00 | 0.00 | 0.00 | 100 | |
| 20260508144026 | 14 | 70 | 4.8 | 9.7 | 0.00 | 0.00 | 0.00 | 100 | |
| 20260508143526 | 14 | 23 | 0.0 | 12.9 | 0.00 | 0.00 | 0.00 | 100 | |
| 20260508143026 | 15 | 85 | 3.2 | 6.4 | 0.00 | 0.00 | 0.00 | 100 | |
| 20260508142526 | 15 | 338 | 0.0 | 1.6 | 0.00 | 0.00 | 0.00 | 100 | |
| 20260508142026 | 15 | 351 | 0.0 | 6.4 | 0.00 | 0.00 | 0.00 | 100 | |
| 20260508141526 | 15 | 28 | 0.0 | 3.2 | 0.00 | 0.00 | 0.00 | 100 | |
| 20260508141026 | 13 | 26 | 0.0 | 11.3 | 0.00 | 0.00 | 0.00 | 100 | |
| 20260508140526 | 16 | 257 | 0.0 | 4.8 | 0.00 | 0.00 | 0.00 | 100 | |
| 20260508140026 | 14 | 35 | 0.0 | 6.4 | 0.00 | 0.00 | 0.00 | 100 | |
| 20260508135526 | 15 | 320 | 1.6 | 3.2 | 0.00 | 0.00 | 0.00 | 100 | |
| 20260508135026 | 15 | 68 | 0.0 | 1.6 | 0.00 | 0.00 | 0.00 | 100 | |
| 20260508134526 | 15 | 84 | 0.0 | 6.4 | 0.00 | 0.00 | 0.00 | 100 | |
| 20260508134026 | 15 | 64 | 0.0 | 8.0 | 0.00 | 0.00 | 0.00 | 100 | |
| 20260508133526 | 16 | 46 | 0.0 | 1.6 | 0.00 | 0.00 | 0.00 | 100 | |
| 20260508133026 | 15 | 127 | 0.0 | 1.6 | 0.00 | 0.00 | 0.00 | 100 | |
| 20260508132526 | 16 | 292 | 0.0 | 3.2 | 0.00 | 0.00 | 0.00 | 100 | |
| 20260508132026 | 16 | 271 | 0.0 | 1.6 | 0.00 | 0.00 | 0.00 | 100 | |
| 20260508131526 | 17 | 264 | 1.6 | 3.2 | 0.00 | 0.00 | 0.00 | 100 | |
| 20260508131026 | 16 | 184 | 0.0 | 0.0 | 0.00 | 0.00 | 0.00 | 100 | |
| 20260508130526 | 17 | 184 | 0.0 | 1.6 | 0.00 | 0.00 | 0.00 | 100 | |
| 20260508130027 | 16 | 139 | 0.0 | 8.0 | 0.00 | 0.00 | 0.00 | 100 | |
| 20260508125527 | 17 | 188 | 0.0 | 3.2 | 0.00 | 0.00 | 0.00 | 100 | |
| 20260508125027 | 16 | 198 | 0.0 | 0.0 | 0.00 | 0.00 | 0.00 | 100 | |
| 20260508124527 | 17 | 198 | 0.0 | 0.0 | 0.00 | 0.00 | 0.00 | 100 | |
| 20260508124027 | 16 | 198 | 0.0 | 3.2 | 0.00 | 0.00 | 0.00 | 100 | |
| 20260508123527 | 16 | 194 | 0.0 | 0.0 | 0.00 | 0.00 | 0.00 | 100 | |
| 20260508123027 | 16 | 194 | 0.0 | 0.0 | 0.00 | 0.00 | 0.00 | 100 | |
| 20260508122527 | 16 | 194 | 0.0 | 6.4 | 0.00 | 0.00 | 0.00 | 100 | |
| 20260508122027 | 15 | 54 | 0.0 | 0.0 | 0.00 | 0.00 | 0.00 | 100 | |
| 20260508121527 | 15 | 54 | 0.0 | 0.0 | 0.00 | 0.00 | 0.00 | 100 | |
| 20260508121027 | 14 | 54 | 0.0 | 0.0 | 0.00 | 0.00 | 0.00 | 100 | |
| 20260508120527 | 13 | 54 | 0.0 | 6.4 | 0.00 | 0.00 | 0.00 | 100 | |
| 20260508120027 | 13 | 56 | 6.4 | 6.4 | 0.00 | 0.00 | 0.00 | 100 | |
| 20260508115527 | 13 | 82 | 0.0 | 3.2 | 0.00 | 0.00 | 0.00 | 100 | |
| 20260508115027 | 12 | 56 | 3.2 | 3.2 | 0.00 | 0.00 | 0.00 | 100 | |
| 20260508114527 | 13 | 47 | 0.0 | 0.0 | 0.00 | 0.00 | 0.00 | 100 | |
| 20260508114027 | 12 | 47 | 0.0 | 1.6 | 0.00 | 0.00 | 0.00 | 100 | |
| 20260508113527 | 12 | 70 | 1.6 | 3.2 | 0.00 | 0.00 | 0.00 | 100 | |
| 20260508113027 | 11 | 77 | 0.0 | 0.0 | 0.00 | 0.00 | 0.00 | 100 | |
| 20260508112527 | 11 | 77 | 0.0 | 0.0 | 0.00 | 0.00 | 0.00 | 100 | |
| 20260508112027 | 11 | 77 | 0.0 | 0.0 | 0.00 | 0.00 | 0.00 | 100 | |
| 20260508111527 | 10 | 77 | 0.0 | 0.0 | 0.00 | 0.00 | 0.00 | 100 | |
| 20260508111027 | 9 | 77 | 0.0 | 0.0 | 0.00 | 0.00 | 0.00 | 100 | |
| 20260508110527 | 8 | 77 | 0.0 | 0.0 | 0.00 | 0.00 | 0.00 | 100 | |
| 20260508110027 | 7 | 77 | 0.0 | 0.0 | 0.00 | 0.00 | 0.00 | 100 | |
| 20260508105527 | 7 | 77 | 0.0 | 0.0 | 0.00 | 0.00 | 0.00 | 100 | |
| 20260508105027 | 7 | 77 | 0.0 | 0.0 | 0.00 | 0.00 | 0.00 | 100 | |
| 20260508104527 | 7 | 77 | 0.0 | 0.0 | 0.00 | 0.00 | 0.00 | 100 | |
| 20260508104027 | 7 | 77 | 0.0 | 0.0 | 0.00 | 0.00 | 0.00 | 100 | |
| 20260508103527 | 6 | 77 | 0.0 | 0.0 | 0.00 | 0.00 | 0.00 | 100 | |
| 20260508103027 | 6 | 77 | 0.0 | 0.0 | 0.00 | 0.00 | 0.00 | 100 | |
| 20260508102527 | 6 | 77 | 0.0 | 0.0 | 0.00 | 0.00 | 0.00 | 100 | |
| 20260508102027 | 6 | 77 | 0.0 | 0.0 | 0.00 | 0.00 | 0.00 | 100 | |
| 20260508101527 | 6 | 77 | 0.0 | 0.0 | 0.00 | 0.00 | 0.00 | 100 | |
| 20260508101027 | 6 | 77 | 0.0 | 0.0 | 0.00 | 0.00 | 0.00 | 100 | |
| 20260508100527 | 6 | 77 | 0.0 | 0.0 | 0.00 | 0.00 | 0.00 | 100 | |
| 20260508100027 | 7 | 77 | 0.0 | 0.0 | 0.00 | 0.00 | 0.00 | 100 | |
| 20260508095527 | 7 | 77 | 0.0 | 0.0 | 0.00 | 0.00 | 0.00 | 100 | |
| 20260508095027 | 7 | 77 | 0.0 | 0.0 | 0.00 | 0.00 | 0.00 | 100 | |
| 20260508094527 | 7 | 77 | 0.0 | 0.0 | 0.00 | 0.00 | 0.00 | 100 | |
| 20260508094027 | 7 | 77 | 0.0 | 0.0 | 0.00 | 0.00 | 0.00 | 100 | |
| 20260508093527 | 7 | 77 | 0.0 | 0.0 | 0.00 | 0.00 | 0.00 | 100 | |
| 20260508093027 | 7 | 77 | 0.0 | 0.0 | 0.00 | 0.00 | 0.00 | 100 | |
| 20260508092527 | 7 | 77 | 0.0 | 0.0 | 0.00 | 0.00 | 0.00 | 100 | |
| 20260508092027 | 7 | 77 | 0.0 | 0.0 | 0.00 | 0.00 | 0.00 | 100 | |
| 20260508091527 | 7 | 77 | 0.0 | 0.0 | 0.00 | 0.00 | 0.00 | 100 | |
| 20260508091027 | 7 | 77 | 0.0 | 0.0 | 0.00 | 0.00 | 0.00 | 100 | |
| 20260508090527 | 8 | 77 | 0.0 | 0.0 | 0.00 | 0.00 | 0.00 | 100 | |
| 20260508090027 | 8 | 77 | 0.0 | 0.0 | 0.00 | 0.00 | 0.00 | 100 | |
| 20260508085527 | 8 | 77 | 0.0 | 0.0 | 0.00 | 0.00 | 0.00 | 100 | |
| 20260508085027 | 8 | 77 | 0.0 | 0.0 | 0.00 | 0.00 | 0.00 | 100 | |
| 20260508084527 | 8 | 77 | 0.0 | 0.0 | 0.00 | 0.00 | 0.00 | 100 | |
| 20260508084027 | 8 | 77 | 0.0 | 0.0 | 0.00 | 0.00 | 0.00 | 100 | |
| 20260508083527 | 8 | 77 | 0.0 | 0.0 | 0.00 | 0.00 | 0.00 | 100 | |
| 20260508083027 | 8 | 77 | 0.0 | 0.0 | 0.00 | 0.00 | 0.00 | 100 | |
| 20260508082527 | 8 | 77 | 0.0 | 0.0 | 0.00 | 0.00 | 0.00 | 100 | |
| 20260508082027 | 8 | 77 | 0.0 | 3.2 | 0.00 | 0.00 | 0.00 | 100 | |
| 20260508081527 | 9 | 350 | 0.0 | 9.7 | 0.00 | 0.00 | 0.00 | 100 | |
| 20260508081027 | 9 | 227 | 0.0 | 4.8 | 0.00 | 0.00 | 0.00 | 100 | |
| 20260508080527 | 9 | 250 | 1.6 | 3.2 | 0.00 | 0.00 | 0.00 | 100 | |
| 20260508080027 | 9 | 244 | 0.0 | 4.8 | 0.00 | 0.00 | 0.00 | 100 | |
| 20260508075527 | 9 | 300 | 3.2 | 11.3 | 0.00 | 0.00 | 0.00 | 100 | |
| 20260508075027 | 9 | 257 | 9.7 | 9.7 | 0.00 | 0.00 | 0.00 | 100 | |
| 20260508074527 | 8 | 303 | 0.0 | 8.0 | 0.00 | 0.00 | 0.00 | 100 | |
| 20260508074027 | 8 | 271 | 1.6 | 9.7 | 0.00 | 0.00 | 0.00 | 100 | |
| 20260508073527 | 8 | 1 | 0.0 | 0.0 | 0.00 | 0.00 | 0.00 | 100 | |
| 20260508073027 | 8 | 1 | 0.0 | 0.0 | 0.00 | 0.00 | 0.00 | 100 | |
| 20260508072527 | 8 | 1 | 0.0 | 0.0 | 0.00 | 0.00 | 0.00 | 100 | |
| 20260508072027 | 8 | 1 | 0.0 | 0.0 | 0.00 | 0.00 | 0.00 | 100 | |
| 20260508071527 | 8 | 1 | 0.0 | 0.0 | 0.00 | 0.00 | 0.00 | 100 | |
| 20260508071027 | 8 | 1 | 0.0 | 0.0 | 0.00 | 0.00 | 0.00 | 100 | |
| 20260508070527 | 8 | 1 | 0.0 | 0.0 | 0.00 | 0.00 | 0.00 | 100 | |
| 20260508070027 | 8 | 1 | 0.0 | 0.0 | 0.00 | 0.00 | 0.00 | 100 | |
| 20260508065527 | 8 | 1 | 0.0 | 0.0 | 0.00 | 0.00 | 0.00 | 100 | |
| 20260508065027 | 8 | 1 | 0.0 | 0.0 | 0.00 | 0.00 | 0.00 | 100 | |
| 20260508064527 | 8 | 1 | 0.0 | 0.0 | 0.00 | 0.00 | 0.00 | 100 | |
| 20260508064027 | 8 | 1 | 0.0 | 0.0 | 0.00 | 0.00 | 0.00 | 100 | |
| 20260508063527 | 8 | 1 | 0.0 | 0.0 | 0.00 | 0.00 | 0.00 | 100 | |
| 20260508063027 | 8 | 1 | 0.0 | 0.0 | 0.00 | 0.00 | 0.00 | 100 | |
| 20260508062527 | 8 | 1 | 0.0 | 0.0 | 0.00 | 0.00 | 0.00 | 100 | |
| 20260508062027 | 8 | 1 | 0.0 | 0.0 | 0.00 | 0.00 | 0.00 | 100 | |
| 20260508061527 | 8 | 1 | 0.0 | 0.0 | 0.00 | 0.00 | 0.00 | 100 | |
| 20260508061027 | 8 | 1 | 0.0 | 0.0 | 0.00 | 0.00 | 0.00 | 100 | |
| 20260508060527 | 8 | 1 | 0.0 | 0.0 | 0.00 | 0.00 | 0.00 | 100 | |
| 20260508060027 | 9 | 1 | 0.0 | 0.0 | 0.00 | 0.00 | 0.00 | 100 | |
| 20260508055527 | 9 | 1 | 0.0 | 0.0 | 0.00 | 0.00 | 0.00 | 100 | |
| 20260508055027 | 9 | 1 | 0.0 | 0.0 | 0.00 | 0.00 | 0.00 | 100 | |
| 20260508054527 | 9 | 1 | 0.0 | 0.0 | 0.00 | 0.00 | 0.00 | 100 | |
| 20260508054027 | 10 | 1 | 0.0 | 1.6 | 0.00 | 0.00 | 0.00 | 100 | |
| 20260508053527 | 10 | 285 | 0.0 | 1.6 | 0.00 | 0.00 | 0.00 | 100 | |
| 20260508053027 | 10 | 316 | 0.0 | 1.6 | 0.00 | 0.00 | 0.00 | 100 | |
| 20260508052527 | 11 | 243 | 0.0 | 4.8 | 0.00 | 0.00 | 0.00 | 100 | |
| 20260508052027 | 11 | 233 | 4.8 | 11.3 | 0.00 | 0.00 | 0.00 | 100 | |
| 20260508051527 | 10 | 303 | 0.0 | 9.7 | 0.00 | 0.00 | 0.00 | 100 | |
| 20260508051027 | 10 | 270 | 1.6 | 14.5 | 0.00 | 0.00 | 0.00 | 100 | |
| 20260508050527 | 10 | 274 | 0.0 | 6.4 | 0.00 | 0.00 | 0.00 | 100 | |
| 20260508050027 | 11 | 233 | 0.0 | 6.4 | 0.00 | 0.00 | 0.00 | 100 | |
| 20260508045527 | 11 | 258 | 1.6 | 9.7 | 0.00 | 0.00 | 0.00 | 100 | |
| 20260508045027 | 11 | 313 | 0.0 | 6.4 | 0.00 | 0.00 | 0.00 | 100 | |
| 20260508044527 | 10 | 236 | 4.8 | 8.0 | 0.00 | 0.00 | 0.00 | 100 | |
| 20260508044028 | 11 | 187 | 0.0 | 3.2 | 0.00 | 0.00 | 0.00 | 100 | |
| 20260508043528 | 11 | 227 | 0.0 | 4.8 | 0.00 | 0.00 | 0.00 | 100 | |
| 20260508043028 | 11 | 237 | 0.0 | 3.2 | 0.00 | 0.00 | 0.00 | 100 | |
| 20260508042528 | 11 | 206 | 0.0 | 1.6 | 0.00 | 0.00 | 0.00 | 100 | |
| 20260508042028 | 11 | 219 | 0.0 | 3.2 | 0.00 | 0.00 | 0.00 | 100 | |
| 20260508041528 | 11 | 240 | 0.0 | 6.4 | 0.00 | 0.00 | 0.00 | 100 | |
| 20260508041028 | 11 | 223 | 0.0 | 0.0 | 0.00 | 0.00 | 0.00 | 100 | |
| 20260508040528 | 11 | 223 | 0.0 | 0.0 | 0.00 | 0.00 | 0.00 | 100 | |
| 20260508040028 | 11 | 223 | 0.0 | 0.0 | 0.00 | 0.00 | 0.00 | 100 | |
| 20260508035528 | 11 | 223 | 0.0 | 0.0 | 0.00 | 0.00 | 0.00 | 100 | |
| 20260508035028 | 11 | 223 | 0.0 | 0.0 | 0.00 | 0.00 | 0.00 | 100 | |
| 20260508034528 | 11 | 223 | 0.0 | 0.0 | 0.00 | 0.00 | 0.00 | 100 | |
| 20260508034028 | 11 | 223 | 0.0 | 0.0 | 0.00 | 0.00 | 0.00 | 100 | |
| 20260508033528 | 11 | 223 | 0.0 | 3.2 | 0.00 | 0.00 | 0.00 | 100 | |
| 20260508033028 | 11 | 255 | 3.2 | 9.7 | 0.00 | 0.00 | 0.00 | 100 | |
| 20260508032528 | 11 | 241 | 6.4 | 9.7 | 0.00 | 0.00 | 0.00 | 100 | |
| 20260508032028 | 11 | 153 | 0.0 | 11.3 | 0.00 | 0.00 | 0.00 | 100 | |
| 20260508031528 | 11 | 202 | 8.0 | 11.3 | 0.00 | 0.00 | 0.00 | 100 | |
| 20260508031028 | 11 | 262 | 3.2 | 12.9 | 0.00 | 0.00 | 0.00 | 100 | |
| 20260508030528 | 11 | 247 | 0.0 | 12.9 | 0.00 | 0.00 | 0.00 | 100 | |
| 20260508030028 | 12 | 241 | 8.0 | 11.3 | 0.00 | 0.00 | 0.00 | 100 | |
| 20260508025528 | 12 | 226 | 1.6 | 16.1 | 0.00 | 0.00 | 0.00 | 100 | |
| 20260508025028 | 12 | 236 | 1.6 | 12.9 | 0.00 | 0.00 | 0.00 | 100 | |
| 20260508024528 | 12 | 271 | 4.8 | 9.7 | 0.00 | 0.00 | 0.00 | 100 | |
| 20260508024028 | 12 | 261 | 6.4 | 11.3 | 0.00 | 0.00 | 0.00 | 100 | |
| 20260508023528 | 12 | 260 | 6.4 | 11.3 | 0.00 | 0.00 | 0.00 | 100 | |
| 20260508023028 | 12 | 288 | 0.0 | 4.8 | 0.00 | 0.00 | 0.00 | 100 | |
| 20260508022528 | 12 | 264 | 0.0 | 8.0 | 0.00 | 0.00 | 0.00 | 100 | |
| 20260508022028 | 12 | 240 | 0.0 | 4.8 | 0.00 | 0.00 | 0.00 | 100 | |
| 20260508021528 | 12 | 267 | 0.0 | 3.2 | 0.00 | 0.00 | 0.00 | 100 | |
| 20260508021028 | 12 | 243 | 0.0 | 0.0 | 0.00 | 0.00 | 0.00 | 100 | |
| 20260508020528 | 12 | 243 | 0.0 | 3.2 | 0.00 | 0.00 | 0.00 | 100 | |
| 20260508020028 | 12 | 254 | 0.0 | 0.0 | 0.00 | 0.00 | 0.00 | 100 | |
| 20260508015528 | 12 | 254 | 0.0 | 0.0 | 0.00 | 0.00 | 0.00 | 100 | |
| 20260508015028 | 12 | 254 | 0.0 | 8.0 | 0.00 | 0.00 | 0.00 | 100 | |
| 20260508014528 | 12 | 258 | 0.0 | 3.2 | 0.00 | 0.00 | 0.00 | 100 | |
| 20260508014028 | 12 | 239 | 0.0 | 4.8 | 0.00 | 0.00 | 0.00 | 100 | |
| 20260508013528 | 12 | 255 | 0.0 | 6.4 | 0.00 | 0.00 | 0.00 | 100 | |
| 20260508013028 | 12 | 271 | 1.6 | 8.0 | 0.00 | 0.00 | 0.00 | 100 | |
| 20260508012528 | 12 | 255 | 0.0 | 6.4 | 0.00 | 0.00 | 0.00 | 100 | |
| 20260508012028 | 12 | 244 | 0.0 | 12.9 | 0.00 | 0.00 | 0.00 | 100 | |
| 20260508011528 | 12 | 253 | 12.9 | 12.9 | 0.00 | 0.00 | 0.00 | 100 | |
| 20260508011028 | 12 | 225 | 0.0 | 12.9 | 0.00 | 0.00 | 0.00 | 100 | |
| 20260508010528 | 12 | 319 | 1.6 | 12.9 | 0.00 | 0.00 | 0.00 | 100 | |
| 20260508010028 | 12 | 220 | 1.6 | 14.5 | 0.00 | 0.00 | 0.00 | 100 | |
| 20260508005528 | 12 | 258 | 8.0 | 9.7 | 0.00 | 0.00 | 0.00 | 100 | |
| 20260508005028 | 12 | 277 | 8.0 | 11.3 | 0.00 | 0.00 | 0.00 | 100 | |
| 20260508004528 | 12 | 257 | 4.8 | 9.7 | 0.00 | 0.00 | 0.00 | 100 | |
| 20260508004028 | 12 | 265 | 0.0 | 12.9 | 0.00 | 0.00 | 0.00 | 100 | |
| 20260508003528 | 12 | 310 | 3.2 | 11.3 | 0.00 | 0.00 | 0.00 | 100 | |
| 20260508003028 | 12 | 284 | 3.2 | 9.7 | 0.00 | 0.00 | 0.00 | 100 | |
| 20260508002528 | 12 | 239 | 6.4 | 6.4 | 0.00 | 0.00 | 0.00 | 100 | |
| 20260508002028 | 12 | 203 | 0.0 | 11.3 | 0.00 | 0.00 | 0.00 | 100 | |
| 20260508001528 | 13 | 268 | 1.6 | 14.5 | 0.00 | 0.00 | 0.00 | 100 | |
| 20260508001028 | 13 | 253 | 11.3 | 17.7 | 0.00 | 0.00 | 0.00 | 100 | |
| 20260508000528 | 13 | 217 | 4.8 | 4.8 | 0.00 | 0.00 | 0.00 | 100 | |
| 20260508000028 | 13 | 267 | 0.0 | 12.9 | 0.00 | 0.00 | 0.00 | 100 | |
| 20260507235528 | 13 | 320 | 1.6 | 11.3 | 0.00 | 0.00 | 0.00 | 100 | |
| 20260507235028 | 13 | 264 | 0.0 | 17.7 | 0.00 | 0.00 | 0.00 | 100 | |
| 20260507234528 | 13 | 257 | 1.6 | 12.9 | 0.00 | 0.00 | 0.00 | 100 | |
| 20260507234028 | 13 | 267 | 3.2 | 9.7 | 0.00 | 0.00 | 0.00 | 100 | |
| 20260507233528 | 13 | 277 | 8.0 | 14.5 | 0.00 | 0.00 | 0.00 | 100 | |
| 20260507233028 | 13 | 255 | 0.0 | 8.0 | 0.00 | 0.00 | 0.00 | 100 | |
| 20260507232528 | 13 | 278 | 1.6 | 12.9 | 0.00 | 0.00 | 0.00 | 100 | |
| 20260507232028 | 14 | 275 | 3.2 | 20.9 | 0.00 | 0.00 | 0.00 | 100 | |
| 20260507231528 | 14 | 286 | 4.8 | 14.5 | 0.00 | 0.00 | 0.00 | 100 |